(332906) = 2009 TZ44 = 2010 AD96 = 2011 BM75

Discovered at Kitt Peak on 2004-02-22 by Spacewatch.

Orbit

Orbit type: Main Belt

Note: WebGL enabled browser required.

epoch2023-09-13.0
epoch JD2460200.5
perihelion date2023-06-05.33544
perihelion JD2460100.83544
argument of perihelion (°)35.44322
ascending node (°)305.40426
inclination (°)5.03591
eccentricity0.1050897
perihelion distance (AU)2.0581633
Tisserand w.r.t. Jupiter3.6
ΔV w.r.t. Earth (km/sec)9.0
semimajor axis (AU)2.2998544
mean anomaly (°)28.16398
mean daily motion (°/day)0.28258780
aphelion distance (AU)2.542
period (years)3.49
P-vector [x]0.94282407
P-vector [y]-0.32244903
P-vector [z]-0.08431725
Q-vector [x]0.32552056
Q-vector [y]0.83658011
Q-vector [z]0.44064735
absolute magnitude17.35
phase slope0.15
uncertainty0
referenceMPEC 2023-Y63
observations used299
oppositions15
arc length (days)7744
first opposition used2002
last opposition used2023
residual rms (arc-secs)0.67
perturbers coarse indicatorM-v
perturbers precise indicator003Ek
first observation date used2002-10-04.0
last observation date used2023-12-17.0
computer nameMPCLINUX
JD of orbit computation2456670.664767
perihelion JD uncertainty (days)1.0139E-04
argument of perihelion uncertainty (°)5.7399E-05
ascending node uncertainty (°)5.0708E-05
inclination uncertainty (°)6.4614E-06
eccentricity uncertainty 5.9484E-08
perihelion distance uncertainty (AU)1.3975E-07
Minimum Orbit Intersection Distances (in AU)
for orbit epoch: 2460200.5, reference: E2023-Y63
Mercury1.66011
Venus1.33696
Earth1.05082
Mars0.68912
Jupiter2.77265
Saturn6.64012
Uranus15.9121
Neptune27.6713

Observations

312 total observations over interval: 2002 10 04.29851 – 2023 12 17.187197
These data are available for download (format description).

Date (UT) J2000 RA J2000 Dec Magn Location Ref
2002 10 04.29851 00 43 12.49 +14 19 28.3 20.3   644 – Palomar Mountain/NEAT MPS 384068
2002 10 04.30899 00 43 11.83 +14 19 25.3 19.8   644 – Palomar Mountain/NEAT MPS 384068
2002 10 04.31951 00 43 11.22 +14 19 22.1 19.4   644 – Palomar Mountain/NEAT MPS 384068
2004 02 22.35480 10 08 03.30 +07 34 45.7 20.7 V 691 – Steward Observatory, Kitt Peak-Spacewatch MPS 384068
2004 02 22.38256 10 08 01.48 +07 34 51.9 20.8 V 691 – Steward Observatory, Kitt Peak-Spacewatch MPS 384068
2004 02 22.41028 10 07 59.69 +07 34 58.7 21.1 V 691 – Steward Observatory, Kitt Peak-Spacewatch MPS 384068
2004 03 21.13460 09 43 56.85 +09 13 05.6 22.0 V 691 – Steward Observatory, Kitt Peak-Spacewatch MPS 384068
2004 03 21.16527 09 43 55.78 +09 13 10.2 21.6 V 691 – Steward Observatory, Kitt Peak-Spacewatch MPS 384068
2004 03 21.20093 09 43 54.46 +09 13 15.7 21.8 V 691 – Steward Observatory, Kitt Peak-Spacewatch MPS 384068
2006 12 15.27720 06 37 39.10 +27 51 59.4   691 – Steward Observatory, Kitt Peak-Spacewatch MPS 384068
2006 12 15.29458 06 37 37.92 +27 51 58.8   691 – Steward Observatory, Kitt Peak-Spacewatch MPS 384068
2006 12 15.31196 06 37 36.66 +27 51 58.4   691 – Steward Observatory, Kitt Peak-Spacewatch MPS 384068
2006 12 24.17963 06 27 00.33 +27 44 58.8 20.2 V 691 – Steward Observatory, Kitt Peak-Spacewatch MPS 384068
2006 12 24.19702 06 26 59.04 +27 44 57.6 20.2 V 691 – Steward Observatory, Kitt Peak-Spacewatch MPS 384068
2006 12 24.21435 06 26 57.70 +27 44 56.7 20.0 V 691 – Steward Observatory, Kitt Peak-Spacewatch MPS 384068
2007 01 17.09067 06 00 29.40 +26 53 32.9 21.3 V 691 – Steward Observatory, Kitt Peak-Spacewatch MPS 384068
2007 01 17.10861 06 00 28.49 +26 53 30.5 20.9 V 691 – Steward Observatory, Kitt Peak-Spacewatch MPS 384068
2007 01 17.12654 06 00 27.54 +26 53 27.4 21.0 V 691 – Steward Observatory, Kitt Peak-Spacewatch MPS 384068
2008 05 13.22375 13 16 36.44 -16 57 02.4 20.1 V G96 – Mt. Lemmon Survey MPS 384068
2008 05 13.22962 13 16 36.22 -16 57 00.8 20.0 V G96 – Mt. Lemmon Survey MPS 384068
2008 05 13.23545 13 16 35.94 -16 56 58.3 20.7 V G96 – Mt. Lemmon Survey MPS 384068
2008 05 13.24159 13 16 35.68 -16 56 56.8 20.5 V G96 – Mt. Lemmon Survey MPS 384068
2009 09 21.35448 01 17 00.60 +17 15 55.2 20.7 V 703 – Catalina Sky Survey MPS 384068
2009 09 21.35993 01 17 00.31 +17 15 55.3 21.0 V 703 – Catalina Sky Survey MPS 384068
2009 09 21.36550 01 17 00.09 +17 15 53.9 20.5 V 703 – Catalina Sky Survey MPS 384068
2009 09 21.37102 01 16 59.80 +17 15 52.5 20.5 V 703 – Catalina Sky Survey MPS 384068
2009 10 09.36447 01 00 24.80 +16 20 21.6 19.4 V 703 – Catalina Sky Survey MPS 307394
2009 10 09.37241 01 00 24.40 +16 20 17.4 19.3 V 703 – Catalina Sky Survey MPS 307394
2009 10 09.38045 01 00 23.83 +16 20 16.0 19.3 V 703 – Catalina Sky Survey MPS 307394
2009 10 09.38848 01 00 23.32 +16 20 12.6 19.3 V 703 – Catalina Sky Survey MPS 307394
2009 10 16.29880 00 53 36.49 +15 43 11.4 19.2 V 703 – Catalina Sky Survey MPS 307394
2009 10 16.30683 00 53 35.95 +15 43 09.6 19.4 V 703 – Catalina Sky Survey MPS 307394
2009 10 16.31490 00 53 35.55 +15 43 06.1 19.2 V 703 – Catalina Sky Survey MPS 307394
2009 10 16.32289 00 53 34.98 +15 43 04.0 19.3 V 703 – Catalina Sky Survey MPS 307394
2010 01 09.04100 01 10 00.25 +13 31 37.2   C51 – WISE MPS 329321
2010 01 09.041005 01 10 00.24 +13 31 37.0   C51 – WISE MPS 329321
2010 01 09.173436 01 10 10.12 +13 32 13.4   C51 – WISE MPS 329321
2010 01 09.305741 01 10 19.87 +13 32 50.6   C51 – WISE MPS 329321
2010 01 09.438045 01 10 29.71 +13 33 28.5   C51 – WISE MPS 329321
2010 01 09.504262 01 10 34.69 +13 33 45.8   C51 – WISE MPS 329321
2010 01 09.570351 01 10 39.66 +13 34 04.9   C51 – WISE MPS 329321
2010 01 09.570478 01 10 39.63 +13 34 05.4   C51 – WISE MPS 329321
2010 01 10.165912 01 11 24.13 +13 36 53.8   C51 – WISE MPS 329321
2011 01 30.41123 10 42 11.603 +04 52 02.89 21.9 w F51 – Pan-STARRS 1, Haleakala MPS 379757
2011 01 30.42596 10 42 10.955 +04 52 04.47 21.6 w F51 – Pan-STARRS 1, Haleakala MPS 379757
2011 01 30.44205 10 42 10.222 +04 52 06.07 21.5 w F51 – Pan-STARRS 1, Haleakala MPS 379757
2011 02 04.45755 10 38 14.992 +05 02 21.32 21.2 w F51 – Pan-STARRS 1, Haleakala MPS 379757
2011 02 04.47180 10 38 14.249 +05 02 23.36 21.0 w F51 – Pan-STARRS 1, Haleakala MPS 379757
2011 02 04.48627 10 38 13.491 +05 02 25.46 21.1 w F51 – Pan-STARRS 1, Haleakala MPS 379757
2011 02 04.50075 10 38 12.736 +05 02 27.48 21.1 w F51 – Pan-STARRS 1, Haleakala MPS 379757
2011 02 05.44565 10 37 24.834 +05 04 47.38 21.1 w F51 – Pan-STARRS 1, Haleakala MPS 383052
2011 02 05.45993 10 37 24.074 +05 04 49.61 21.1 w F51 – Pan-STARRS 1, Haleakala MPS 383052
2011 02 05.47436 10 37 23.302 +05 04 51.79 21.1 w F51 – Pan-STARRS 1, Haleakala MPS 383052
2011 02 05.48879 10 37 22.532 +05 04 53.97 21.1 w F51 – Pan-STARRS 1, Haleakala MPS 383052
2011 03 06.25925 10 08 50.46 +06 52 13.3 20.4 V G96 – Mt. Lemmon Survey MPS 383344
2011 03 06.26738 10 08 49.99 +06 52 15.3 20.5 V G96 – Mt. Lemmon Survey MPS 383344
2011 03 06.27553 10 08 49.48 +06 52 17.4 20.5 V G96 – Mt. Lemmon Survey MPS 383344
2011 03 06.28360 10 08 49.02 +06 52 19.4 20.3 V G96 – Mt. Lemmon Survey MPS 383344
2012 06 14.45585 19 28 54.187 -26 05 50.69 20.2 w F51 – Pan-STARRS 1, Haleakala MPS 426535
2012 06 14.46736 19 28 53.683 -26 05 50.81 20.0 w F51 – Pan-STARRS 1, Haleakala MPS 426535
2012 06 14.49035 19 28 52.644 -26 05 50.71 19.9 w F51 – Pan-STARRS 1, Haleakala MPS 426535
2013 11 24.61819 07 11 27.877 +27 02 32.59 20.5 i F51 – Pan-STARRS 1, Haleakala MPS 489856
2013 11 24.63218 07 11 27.489 +27 02 32.72 20.5 i F51 – Pan-STARRS 1, Haleakala MPS 489856
2013 11 28.50359 07 09 32.17 +27 04 22.7 21.4 V G96 – Mt. Lemmon Survey MPS 489856
2013 11 28.51031 07 09 31.95 +27 04 22.9 21.3 V G96 – Mt. Lemmon Survey MPS 489856
2013 11 28.51706 07 09 31.71 +27 04 23.0 20.6 V G96 – Mt. Lemmon Survey MPS 489856
2013 11 28.52381 07 09 31.44 +27 04 23.2 20.6 V G96 – Mt. Lemmon Survey MPS 489856
2013 12 25.42808 06 43 42.38 +27 07 41.7 19.5 R 926 – Tenagra II Observatory, Nogales MPS 493319
2013 12 25.44379 06 43 41.31 +27 07 41.5 19.6 R 926 – Tenagra II Observatory, Nogales MPS 493319
2013 12 25.45950 06 43 40.08 +27 07 40.3 19.3 R 926 – Tenagra II Observatory, Nogales MPS 493319
2013 12 26.37224 06 42 33.803 +27 07 03.75 20.1 w F51 – Pan-STARRS 1, Haleakala MPS 493319
2013 12 26.38764 06 42 32.639 +27 07 03.15 20.0 w F51 – Pan-STARRS 1, Haleakala MPS 493319
2013 12 26.40305 06 42 31.463 +27 07 02.58 20.0 w F51 – Pan-STARRS 1, Haleakala MPS 493319
2013 12 26.41852 06 42 30.294 +27 07 01.91 20.0 w F51 – Pan-STARRS 1, Haleakala MPS 493319
2015 04 22.29775 13 51 08.20 -20 34 03.2 19.7 r G45 – Space Surveillance Telescope, Atom Site MPS 606266
2015 04 22.30307 13 51 07.84 -20 34 03.5 19.7 r G45 – Space Surveillance Telescope, Atom Site MPS 606266
2015 04 22.30860 13 51 07.53 -20 34 01.1 19.5 r G45 – Space Surveillance Telescope, Atom Site MPS 606266
2015 04 22.31436 13 51 07.18 -20 34 00.7 18.9 r G45 – Space Surveillance Telescope, Atom Site MPS 606266
2015 04 23.26894 13 50 07.79 -20 29 06.8 20.1 r G45 – Space Surveillance Telescope, Atom Site MPS 606266
2015 04 23.27433 13 50 07.45 -20 29 04.8 19.8 r G45 – Space Surveillance Telescope, Atom Site MPS 606266
2015 04 23.27965 13 50 07.16 -20 29 02.6 19.4 r G45 – Space Surveillance Telescope, Atom Site MPS 606266
2015 04 23.29694 13 50 06.00 -20 28 58.0 20.0 r G45 – Space Surveillance Telescope, Atom Site MPS 606266
2015 04 23.30236 13 50 05.68 -20 28 56.2 20.1 r G45 – Space Surveillance Telescope, Atom Site MPS 606266
2015 04 23.30761 13 50 05.18 -20 28 54.7 19.3 r G45 – Space Surveillance Telescope, Atom Site MPS 606266
2016 09 06.38402 01 44 16.71 +18 50 09.0 19.8 V G96 – Mt. Lemmon Survey MPS 729704
2016 09 06.39119 01 44 16.64 +18 50 11.0 19.8 V G96 – Mt. Lemmon Survey MPS 729704
2016 09 06.39828 01 44 16.49 +18 50 11.3 19.7 V G96 – Mt. Lemmon Survey MPS 729704
2016 09 06.40543 01 44 16.46 +18 50 13.5 19.6 V G96 – Mt. Lemmon Survey MPS 729704
2016 09 06.43577 01 44 16.02 +18 50 19.3 19.9 V G96 – Mt. Lemmon Survey MPS 729704
2016 09 06.44159 01 44 15.93 +18 50 20.9 19.4 V G96 – Mt. Lemmon Survey MPS 729704
